Location: Baili�vre
(50.0696°N, 4.2409°E)
Time: 21:51:32
(UTC+00:00)

USA 267 - Pass Details

Date: 08 August 2020
Orbit: 1102 x 1106 km, 123.0° (Epoch: 18 September)

Event Time Altitude Azimuth Distance (km) Brightness Sun altitude
Rises 23:05:36 0° 69° (ENE) 3,925 6.3 -23.5°
Reaches altitude 10° 23:08:09 10° 65° (ENE) 2,967 5.7 -23.5°
Maximum altitude 23:14:25 51° 352° (N) 1,368 4.1 -23.7°
Drops below altitude 10° 23:20:41 10° 279° (W) 2,966 5.7 -23.9°
Sets 23:23:14 0° 275° (W) 3,924 6.3 -23.9°
